Schneifelwetter: Wetterstation Hallschlag, 537 m . NN
Wetterdaten: Mittwoch, 01.11.2006
Datum Zeit Temp. A. Temp. 2 Feuchte A. Luftdruck Regen Wind Richtung Richtung Sonnenschein Helligkeit T Regen Taupunkt Windchill
01.11.2006 00:09 6,4 C 5,7 C 88 % 1009 hPa 0,0 l/m 33,4 km/h (5 Bft) W-NW67.5 290 0 min 0 lux 0,00 min 4,6 C -5,2 C
01.11.2006 00:24 6,1 C 5,6 C 87 % 1009 hPa 0,0 l/m 19,8 km/h (3 Bft) W-NW45 285 0 min 0 lux 0,00 min 4,1 C -1,7 C
01.11.2006 00:39 6,0 C 5,3 C 87 % 1009 hPa 0,0 l/m 15,3 km/h (3 Bft) W-NW67.5 285 0 min 0 lux 0,00 min 4,0 C 0,1 C
01.11.2006 00:54 5,7 C 5,1 C 87 % 1010 hPa 0,0 l/m 16,6 km/h (3 Bft) W-NW45 290 0 min 0 lux 0,00 min 3,7 C -0,8 C
01.11.2006 01:09 5,6 C 4,9 C 87 % 1010 hPa 0,0 l/m 20,0 km/h (4 Bft) W-NW45 285 0 min 0 lux 0,00 min 3,6 C -2,4 C
01.11.2006 01:24 5,6 C 5,0 C 88 % 1010 hPa 0,0 l/m 16,1 km/h (3 Bft) W22.5 270 0 min 0 lux 0,00 min 3,8 C -0,7 C
01.11.2006 01:39 5,6 C 5,1 C 88 % 1010 hPa 0,0 l/m 18,8 km/h (3 Bft) W45 280 0 min 0 lux 0,00 min 3,8 C -1,9 C
01.11.2006 01:54 5,4 C 4,8 C 87 % 1010 hPa 0,0 l/m 25,8 km/h (4 Bft) W-NW67.5 285 0 min 0 lux 0,00 min 3,4 C -4,6 C
01.11.2006 02:09 5,2 C 4,6 C 87 % 1010 hPa 0,0 l/m 20,0 km/h (4 Bft) W22.5 280 0 min 0 lux 0,00 min 3,2 C -2,9 C
01.11.2006 02:24 4,9 C 4,3 C 87 % 1010 hPa 0,0 l/m 30,3 km/h (5 Bft) W22.5 280 0 min 0 lux 0,00 min 2,9 C -6,6 C
01.11.2006 02:39 4,7 C 3,9 C 87 % 1011 hPa 0,0 l/m 17,9 km/h (3 Bft) W22.5 270 0 min 0 lux 0,00 min 2,7 C -2,7 C
01.11.2006 02:54 4,5 C 3,9 C 88 % 1011 hPa 0,0 l/m 27,0 km/h (4 Bft) W22.5 275 0 min 0 lux 0,00 min 2,7 C -6,2 C
01.11.2006 03:09 4,6 C 4,1 C 88 % 1011 hPa 0,0 l/m 21,3 km/h (4 Bft) W22.5 270 0 min 0 lux 0,00 min 2,8 C -4,2 C
01.11.2006 03:24 4,7 C 4,2 C 88 % 1011 hPa 0,0 l/m 23,0 km/h (4 Bft) W22.5 270 0 min 0 lux 0,00 min 2,9 C -4,7 C
01.11.2006 03:39 4,8 C 4,2 C 87 % 1011 hPa 0,0 l/m 25,3 km/h (4 Bft) W45 280 0 min 0 lux 0,00 min 2,8 C -5,3 C
01.11.2006 03:54 4,5 C 3,9 C 87 % 1011 hPa 0,0 l/m 24,8 km/h (4 Bft) W45 270 0 min 0 lux 0,00 min 2,5 C -5,6 C
01.11.2006 04:09 4,3 C 3,8 C 88 % 1011 hPa 0,3 l/m 23,6 km/h (4 Bft) W22.5 270 0 min 0 lux 15,00 min 2,5 C -5,4 C
01.11.2006 04:24 4,3 C 3,7 C 88 % 1012 hPa 0,0 l/m 28,4 km/h (4 Bft) W22.5 275 0 min 0 lux 0,00 min 2,5 C -6,9 C
01.11.2006 04:39 4,2 C 3,6 C 87 % 1012 hPa 0,3 l/m 25,1 km/h (4 Bft) W45 280 0 min 0 lux 15,00 min 2,2 C -6,1 C
01.11.2006 04:54 3,9 C 3,0 C 87 % 1012 hPa 0,0 l/m 24,8 km/h (4 Bft) W45 275 0 min 0 lux 0,00 min 1,9 C -6,4 C
01.11.2006 05:09 3,8 C 2,9 C 87 % 1012 hPa 0,0 l/m 31,2 km/h (5 Bft) W-NW45 285 0 min 0 lux 0,00 min 1,8 C -8,4 C
01.11.2006 05:24 3,6 C 2,9 C 87 % 1012 hPa 0,0 l/m 24,1 km/h (4 Bft) W45 280 0 min 0 lux 0,00 min 1,6 C -6,5 C
01.11.2006 05:39 3,8 C 3,2 C 87 % 1012 hPa 0,0 l/m 33,4 km/h (5 Bft) W22.5 275 0 min 0 lux 0,00 min 1,8 C -8,9 C
01.11.2006 05:54 3,7 C 3,0 C 87 % 1012 hPa 0,0 l/m 23,6 km/h (4 Bft) W22.5 275 0 min 0 lux 0,00 min 1,7 C -6,2 C
01.11.2006 06:09 3,3 C 2,5 C 86 % 1012 hPa 0,0 l/m 23,5 km/h (4 Bft) W67.5 275 0 min 0 lux 0,00 min 1,2 C -6,7 C
01.11.2006 06:24 3,1 C 2,3 C 88 % 1012 hPa 0,0 l/m 17,6 km/h (3 Bft) W45 280 0 min 0 lux 0,00 min 1,3 C -4,6 C
01.11.2006 06:39 3,3 C 2,5 C 88 % 1013 hPa 0,0 l/m 24,4 km/h (4 Bft) W45 270 0 min 0 lux 0,00 min 1,5 C -7,0 C
01.11.2006 06:54 3,5 C 2,8 C 88 % 1013 hPa 0,0 l/m 30,0 km/h (5 Bft) W45 275 0 min 0 lux 0,00 min 1,7 C -8,5 C
01.11.2006 07:09 3,5 C 2,9 C 88 % 1013 hPa 0,0 l/m 25,0 km/h (4 Bft) W45 280 0 min 104 lux 0,00 min 1,7 C -7,0 C
01.11.2006 07:24 3,4 C 2,6 C 87 % 1013 hPa 0,0 l/m 31,5 km/h (5 Bft) W45 275 0 min 891 lux 0,00 min 1,4 C -9,0 C
01.11.2006 07:39 3,4 C 2,5 C 87 % 1013 hPa 0,0 l/m 31,5 km/h (5 Bft) W45 275 0 min 1,70 klux 0,00 min 1,4 C -9,0 C
01.11.2006 07:54 3,4 C 2,6 C 87 % 1014 hPa 0,0 l/m 41,4 km/h (6 Bft) W45 275 0 min 2,24 klux 0,00 min 1,4 C -11,1 C
01.11.2006 08:09 3,5 C 2,8 C 87 % 1014 hPa 0,0 l/m 27,6 km/h (4 Bft) W45 270 0 min 3,84 klux 0,00 min 1,5 C -7,8 C
01.11.2006 08:24 3,7 C 3,0 C 87 % 1014 hPa 0,0 l/m 36,3 km/h (5 Bft) W45 275 0 min 4,80 klux 0,00 min 1,7 C -9,7 C
01.11.2006 08:39 3,9 C 3,3 C 87 % 1014 hPa 0,0 l/m 32,1 km/h (5 Bft) W45 275 0 min 6,92 klux 0,00 min 1,9 C -8,5 C
01.11.2006 08:54 4,1 C 3,6 C 86 % 1015 hPa 0,0 l/m 40,4 km/h (6 Bft) W45 280 0 min 8,09 klux 0,00 min 2,0 C -9,9 C
01.11.2006 09:09 4,3 C 3,7 C 85 % 1015 hPa 0,0 l/m 34,6 km/h (5 Bft) W45 275 0 min 9,4 klux 0,00 min 2,0 C -8,5 C
01.11.2006 09:24 4,5 C 4,1 C 84 % 1015 hPa 0,0 l/m 31,2 km/h (5 Bft) W22.5 275 0 min 15,0 klux 0,00 min 2,0 C -7,4 C
01.11.2006 09:39 4,7 C 4,3 C 83 % 1015 hPa 0,0 l/m 33,4 km/h (5 Bft) W45 270 0 min 12,2 klux 0,00 min 2,1 C -7,6 C
01.11.2006 09:54 4,8 C 4,6 C 82 % 1015 hPa 0,0 l/m 27,4 km/h (4 Bft) W45 280 0 min 12,2 klux 0,00 min 2,0 C -5,9 C
01.11.2006 10:15 5,1 C 4,7 C 81 % 1015 hPa 0,0 l/m 29,7 km/h (5 Bft) W45 275 0 min 15,4 klux 0,00 min 2,1 C -6,2 C
01.11.2006 10:31 5,3 C 5,1 C 79 % 1016 hPa 0,0 l/m 30,4 km/h (5 Bft) W-NW45 300 0 min 18,9 klux 0,00 min 2,0 C -6,1 C
01.11.2006 10:45 5,6 C 5,6 C 77 % 1016 hPa 0,0 l/m 27,0 km/h (4 Bft) W-NW45 300 0 min 18,3 klux 0,00 min 1,9 C -4,7 C
01.11.2006 11:00 6,0 C 7,1 C 73 % 1016 hPa 0,0 l/m 34,8 km/h (5 Bft) W-NW67.5 285 15 min 60,8 klux 0,00 min 1,5 C -6,1 C
01.11.2006 11:15 6,3 C 7,5 C 73 % 1016 hPa 0,0 l/m 24,9 km/h (4 Bft) W67.5 275 15 min 58,5 klux 0,00 min 1,8 C -3,2 C
01.11.2006 11:30 6,4 C 7,2 C 70 % 1016 hPa 0,0 l/m 29,8 km/h (5 Bft) W-NW67.5 285 0 min 30,2 klux 0,00 min 1,3 C -4,4 C
01.11.2006 11:45 6,1 C 6,7 C 72 % 1017 hPa 0,0 l/m 24,9 km/h (4 Bft) W67.5 275 15 min 55,0 klux 0,00 min 1,4 C -3,4 C
01.11.2006 12:00 6,4 C 6,7 C 69 % 1017 hPa 0,0 l/m 39,6 km/h (6 Bft) W-NW67.5 285 0 min 24,6 klux 0,00 min 1,1 C -6,4 C
01.11.2006 12:15 6,7 C 7,5 C 71 % 1017 hPa 0,0 l/m 31,0 km/h (5 Bft) W-NW67.5 300 0 min 23,8 klux 0,00 min 1,8 C -4,2 C
01.11.2006 12:30 5,7 C 5,6 C 74 % 1017 hPa 0,0 l/m 31,6 km/h (5 Bft) W67.5 280 0 min 8,57 klux 0,00 min 1,4 C -5,8 C
01.11.2006 12:45 4,9 C 4,7 C 78 % 1017 hPa 0,3 l/m 30,8 km/h (5 Bft) W-NW45 285 0 min 16,5 klux 15,00 min 1,4 C -6,7 C
01.11.2006 13:00 4,7 C 4,4 C 79 % 1017 hPa 0,0 l/m 28,0 km/h (4 Bft) W45 275 0 min 23,2 klux 0,00 min 1,4 C -6,3 C
01.11.2006 13:15 4,8 C 6,8 C 80 % 1017 hPa 0,0 l/m 26,9 km/h (4 Bft) W-NW67.5 295 15 min 62,5 klux 0,00 min 1,6 C -5,8 C
01.11.2006 13:30 5,5 C 9,0 C 75 % 1017 hPa 0,0 l/m 27,4 km/h (4 Bft) W-NW67.5 300 15 min 61,1 klux 0,00 min 1,4 C -5,0 C
01.11.2006 13:45 5,8 C 9,7 C 73 % 1017 hPa 0,0 l/m 36,2 km/h (5 Bft) W-NW45 295 15 min 61,1 klux 0,00 min 1,3 C -6,6 C
01.11.2006 14:00 5,9 C 9,7 C 71 % 1017 hPa 0,0 l/m 28,2 km/h (4 Bft) W67.5 280 15 min 58,8 klux 0,00 min 1,1 C -4,6 C
01.11.2006 14:15 6,0 C 8,7 C 72 % 1018 hPa 0,0 l/m 31,5 km/h (5 Bft) W67.5 275 0 min 31,3 klux 0,00 min 1,3 C -5,3 C
01.11.2006 14:31 5,9 C 7,2 C 72 % 1018 hPa 0,0 l/m 31,3 km/h (5 Bft) W-NW67.5 285 0 min 18,6 klux 0,00 min 1,2 C -5,4 C
01.11.2006 14:45 4,9 C 6,0 C 76 % 1018 hPa 0,3 l/m 22,8 km/h (4 Bft) W-NW45 295 14 min 48,8 klux 14,00 min 1,0 C -4,3 C
01.11.2006 15:00 4,5 C 6,5 C 79 % 1018 hPa 0,0 l/m 20,9 km/h (4 Bft) W-NW67.5 285 0 min 34,8 klux 0,00 min 1,2 C -4,2 C
01.11.2006 15:15 5,1 C 9,1 C 77 % 1018 hPa 0,0 l/m 16,3 km/h (3 Bft) W67.5 275 0 min 34,3 klux 0,00 min 1,4 C -1,4 C
01.11.2006 15:30 5,3 C 7,5 C 70 % 1018 hPa 0,0 l/m 29,8 km/h (5 Bft) NW67.5 315 0 min 21,1 klux 0,00 min 0,3 C -5,9 C
01.11.2006 15:45 4,4 C 5,6 C 70 % 1019 hPa 0,0 l/m 33,7 km/h (5 Bft) NW45 305 0 min 9,4 klux 0,00 min -0,6 C -8,1 C
01.11.2006 16:00 3,9 C 4,2 C 74 % 1019 hPa 0,0 l/m 34,3 km/h (5 Bft) NW67.5 305 0 min 7,33 klux 0,00 min -0,3 C -9,0 C
01.11.2006 16:15 3,2 C 3,6 C 79 % 1019 hPa 0,0 l/m 26,8 km/h (4 Bft) W-NW45 285 0 min 13,4 klux 0,00 min -0,1 C -8,0 C
01.11.2006 16:30 2,8 C 2,6 C 81 % 1019 hPa 0,0 l/m 15,5 km/h (3 Bft) W-NW45 290 0 min 8,55 klux 0,00 min -0,1 C -3,9 C
01.11.2006 16:45 2,4 C 2,0 C 81 % 1019 hPa 0,0 l/m 22,5 km/h (4 Bft) W-NW45 295 0 min 5,21 klux 0,00 min -0,5 C -7,6 C
01.11.2006 17:00 2,1 C 1,3 C 81 % 1020 hPa 0,0 l/m 10,9 km/h (2 Bft) N-NW45 340 0 min 2,59 klux 0,00 min -0,8 C -1,8 C
01.11.2006 17:15 1,7 C 0,6 C 82 % 1020 hPa 0,0 l/m 9,3 km/h (2 Bft) W45 265 0 min 1,18 klux 0,00 min -1,0 C -1,0 C
01.11.2006 17:30 1,4 C 0,2 C 83 % 1020 hPa 0,0 l/m 7,9 km/h (2 Bft) W45 270 0 min 353 lux 0,00 min -1,2 C -0,1 C
01.11.2006 17:45 1,5 C 0,7 C 85 % 1020 hPa 0,0 l/m 19,8 km/h (3 Bft) W-NW67.5 285 0 min 33 lux 0,00 min -0,7 C -7,6 C
01.11.2006 18:00 1,9 C 0,6 C 82 % 1021 hPa 0,0 l/m 19,8 km/h (3 Bft) W-NW67.5 285 0 min 10 lux 0,00 min -0,8 C -7,1 C
01.11.2006 18:16 1,8 C 0,7 C 83 % 1021 hPa 0,0 l/m 11,8 km/h (2 Bft) W45 275 0 min 0 lux 0,00 min -0,8 C -2,8 C
01.11.2006 18:30 1,9 C 0,9 C 85 % 1021 hPa 0,0 l/m 31,6 km/h (5 Bft) W45 280 0 min 0 lux 0,00 min -0,3 C -11,2 C
01.11.2006 18:45 1,7 C 0,8 C 85 % 1021 hPa 0,0 l/m 15,9 km/h (3 Bft) W-NW45 285 0 min 0 lux 0,00 min -0,5 C -5,4 C
01.11.2006 19:00 1,3 C 0,4 C 85 % 1021 hPa 0,3 l/m 17,3 km/h (3 Bft) W-NW22.5 285 0 min 0 lux 15,00 min -0,9 C -6,7 C
01.11.2006 19:15 0,9 C -0,2 C 85 % 1021 hPa 0,0 l/m 13,6 km/h (3 Bft) W-NW45 290 0 min 0 lux 0,00 min -1,3 C -5,0 C
01.11.2006 19:30 0,7 C -0,4 C 86 % 1022 hPa 0,0 l/m 13,8 km/h (3 Bft) NW67.5 325 0 min 0 lux 0,00 min -1,4 C -5,4 C
01.11.2006 19:45 0,8 C -0,3 C 87 % 1022 hPa 0,0 l/m 16,0 km/h (3 Bft) N-NW67.5 330 0 min 0 lux 0,00 min -1,1 C -6,6 C
01.11.2006 20:00 1,2 C 0,1 C 88 % 1022 hPa 0,0 l/m 29,3 km/h (5 Bft) NW22.5 310 0 min 0 lux 0,00 min -0,6 C -11,5 C
01.11.2006 20:15 1,5 C 0,4 C 88 % 1022 hPa 0,0 l/m 33,9 km/h (5 Bft) NW67.5 320 0 min 0 lux 0,00 min -0,3 C -12,3 C
01.11.2006 20:30 1,1 C -0,1 C 87 % 1022 hPa 0,0 l/m 10,6 km/h (2 Bft) N22.5 5 0 min 0 lux 0,00 min -0,8 C -2,7 C
01.11.2006 20:45 0,7 C -0,5 C 87 % 1022 hPa 0,0 l/m 8,7 km/h (2 Bft) W45 280 0 min 0 lux 0,00 min -1,2 C -1,6 C
01.11.2006 21:00 0,4 C -0,6 C 88 % 1022 hPa 0,0 l/m 11,6 km/h (2 Bft) W-NW22.5 285 0 min 0 lux 0,00 min -1,3 C -4,3 C
01.11.2006 21:15 0,1 C -0,9 C 88 % 1023 hPa 0,0 l/m 1,6 km/h (1 Bft) W-NW45 295 0 min 0 lux 0,00 min -1,6 C 0,1 C
01.11.2006 21:30 -0,2 C -1,2 C 88 % 1023 hPa 0,0 l/m 7,3 km/h (2 Bft) W45 280 0 min 0 lux 0,00 min -1,9 C -1,1 C
01.11.2006 21:45 0,0 C -1,1 C 89 % 1023 hPa 0,0 l/m 16,1 km/h (3 Bft) W67.5 275 0 min 0 lux 0,00 min -1,6 C -7,6 C
01.11.2006 22:00 -0,2 C -1,2 C 89 % 1023 hPa 0,0 l/m 2,4 km/h (1 Bft) NW22.5 315 0 min 0 lux 0,00 min -1,8 C -0,2 C
01.11.2006 22:15 -0,2 C -1,2 C 89 % 1023 hPa 0,0 l/m 5,4 km/h (1 Bft) SW 225 0 min 0 lux 0,00 min -1,8 C -0,2 C
01.11.2006 22:31 -0,2 C -1,4 C 89 % 1023 hPa 0,0 l/m 11,8 km/h (2 Bft) NW67.5 310 0 min 0 lux 0,00 min -1,8 C -5,1 C
01.11.2006 22:45 -0,2 C -1,5 C 90 % 1023 hPa 0,0 l/m 3,1 km/h (1 Bft) N-NW67.5 340 0 min 0 lux 0,00 min -1,6 C -0,2 C
01.11.2006 23:00 -0,2 C -1,5 C 89 % 1023 hPa 0,0 l/m 9,2 km/h (2 Bft) NW22.5 325 0 min 0 lux 0,00 min -1,8 C -3,0 C
01.11.2006 23:15 -0,3 C -1,5 C 89 % 1024 hPa 0,0 l/m 15,3 km/h (3 Bft) NW22.5 305 0 min 0 lux 0,00 min -1,9 C -7,5 C
01.11.2006 23:30 -0,5 C -1,7 C 89 % 1024 hPa 0,0 l/m 5,4 km/h (1 Bft) W-NW45 300 0 min 0 lux 0,00 min -2,1 C -0,5 C
01.11.2006 23:45 -0,4 C -1,8 C 90 % 1024 hPa 0,0 l/m 11,1 km/h (2 Bft) NW45 315 0 min 0 lux 0,00 min -1,8 C -4,8 C
_ Min-Zeit 23:30 23:45 12:00 00:09 - 21:15 - - - - - 23:30 20:15
Minimum _ -0,5 C -1,8 C 69 % 1009 hPa - 1,6 km/h (1 Bft) - - - - - -2,1 C -12,3 C
_ Max-Zeit 12:15 13:45 22:45 23:15 04:09 07:54 - - 11:00 13:15 04:09 00:09 00:39
Maximum _ 6,7 C 9,7 C 90 % 1024 hPa 0,3 l/m 41,4 km/h
W (6 Bft)
- - 15 min 62,5 klux 15,00 min 4,6 C 0,1 C
Durchschnitt _ 3,5 C 3,3 C 83 % 1017 hPa #1,4 l/m 23,1 km/h (4 Bft) W - #1:59 h 9,6 klux #1:14 h 1,0 C -5,4 C